Date String (YYYY-MM-DD hh:mm:ss) UTC,Instrument flags,Ambient pressure (hPa),Sample flow (lpm),Bypass flow (lpm),Sample temperature (°C),Ambient temperature (°C),ASC tube jacket temperature (°C),LED temperature (°C),Box temperature (°C),Sample RH (%),Span deviation,Mass concentration (μg/m³),Mass concentration (μg/m³),Mass concentration (μg/m³)
DateTimeUTC,F1_M11,P_M11,Q1_M11,Q2_M11,T1_M11,T2_M11,T3_M11,T4_M11,T5_M11,U1_M11,ZSPAN_M11,X0_M11,X2_M11,X1_M11
2022-11-04 12:00:00,,0822.2,5.00,0.00,22.6,21.3,00.0,31.4,24.5,15.2,0000.0,0008.24,0006.12,0005.86
2022-11-04 12:01:00,,0822.3,4.99,0.00,22.6,21.3,00.0,31.4,24.5,15.2,0000.0,0008.11,0006.07,0005.85
2022-11-04 12:02:00,,0822.2,5.01,0.00,22.6,21.3,00.0,31.4,24.5,15.2,0000.0,0008.08,0006.06,0005.85
2022-11-04 12:03:00,,0822.2,5.01,0.00,22.6,21.3,00.0,31.4,24.5,15.2,0000.0,0008.05,0006.04,0005.83
2022-11-04 12:04:00,,0822.2,5.00,0.00,22.6,21.3,00.0,31.4,24.5,15.2,0000.0,0008.06,0006.04,0005.83
2022-11-04 12:05:00,,0822.2,4.99,0.00,22.6,21.3,00.0,31.4,24.5,15.2,0000.0,0008.12,0006.07,0005.84
2022-11-04 12:06:00,,0822.2,5.00,0.00,22.6,21.3,00.0,31.4,24.5,15.2,0000.0,0008.19,0006.11,0005.87
2022-11-04 12:07:00,,0822.2,5.01,0.00,22.6,21.3,00.0,31.4,24.5,15.2,0000.0,0008.21,0006.13,0005.89
2022-11-04 12:08:00,,0822.2,5.00,0.00,22.6,21.3,00.0,31.4,24.5,15.2,0000.0,0008.23,0006.16,0005.92
2022-11-04 12:09:00,,0822.2,5.00,0.00,22.6,21.3,00.0,31.3,24.5,15.2,0000.0,0008.26,0006.18,0005.94
2022-11-04 12:10:00,,0822.2,4.99,0.00,22.6,21.2,00.0,31.3,24.5,15.3,0000.0,0008.36,0006.25,0005.98
2022-11-04 12:11:00,,0822.2,5.01,0.00,22.6,21.2,00.0,31.3,24.5,15.3,0000.0,0008.47,0006.38,0006.10
2022-11-04 12:12:00,,0822.2,5.00,0.00,22.6,21.2,00.0,31.3,24.5,15.3,0000.0,0008.65,0006.55,0006.26
2022-11-04 12:13:00,,0822.2,5.00,0.00,22.6,21.1,00.0,31.3,24.5,15.3,0000.0,0008.76,0006.68,0006.39
2022-11-04 12:14:00,,0822.1,5.00,0.00,22.6,21.1,00.0,31.3,24.5,15.3,0000.0,0008.91,0006.77,0006.50
2022-11-04 12:15:00,,0822.2,4.99,0.00,22.5,21.1,00.0,31.3,24.4,15.4,-000.7,0009.35,0006.86,0006.60
2022-11-04 12:16:00,,0822.2,5.00,0.00,22.5,21.0,00.0,31.3,24.4,15.4,-001.6,0009.34,0006.92,0006.69
2022-11-04 12:17:00,,0822.2,5.02,0.00,22.5,21.0,00.0,31.3,24.4,15.4,-002.2,0009.32,0006.97,0006.75
2022-11-04 12:18:00,,0822.2,4.99,0.00,22.5,21.0,00.0,31.3,24.4,15.4,-002.2,0009.40,0007.05,0006.81
2022-11-04 12:19:00,,0822.1,5.01,0.00,22.5,21.0,00.0,31.3,24.4,15.4,-002.0,0009.46,0007.10,0006.85
2022-11-04 12:20:00,,0822.2,5.02,0.00,22.5,21.0,00.0,31.3,24.4,15.4,-001.7,0009.56,0007.12,0006.87
2022-11-04 12:21:00,,0822.2,4.98,0.00,22.5,21.1,00.0,31.3,24.4,15.4,-001.4,0009.47,0007.07,0006.86
2022-11-04 12:22:00,,0822.2,5.01,0.00,22.5,21.1,00.0,31.3,24.4,15.4,-001.0,0009.34,0006.95,0006.77
2022-11-04 12:23:00,,0822.2,5.00,0.00,22.5,21.1,00.0,31.3,24.4,15.4,-000.1,0009.20,0006.80,0006.62
2022-11-04 12:24:00,,0822.2,5.01,0.00,22.5,21.2,00.0,31.3,24.5,15.4,0000.0,0009.03,0006.65,0006.48
2022-11-04 12:25:00,,0822.2,5.00,0.00,22.6,21.9,00.0,31.3,24.6,15.3,0000.0,0008.95,0006.57,0006.40
2022-11-04 12:26:00,,0822.2,5.00,0.00,22.7,22.5,00.0,31.3,24.8,15.3,0000.0,0008.43,0006.47,0006.28
2022-11-04 12:27:00,,0822.2,5.00,0.00,22.7,22.2,00.0,31.3,24.8,15.2,0000.0,0008.37,0006.39,0006.19
2022-11-04 12:28:00,,0822.2,4.99,0.00,22.7,22.0,00.0,31.4,24.7,15.2,0000.0,0008.30,0006.31,0006.12
2022-11-04 12:29:00,,0822.2,5.01,0.00,22.7,21.9,00.0,31.4,24.7,15.2,0000.0,0008.27,0006.24,0006.06
2022-11-04 12:30:00,,0822.3,5.01,0.00,22.7,21.8,00.0,31.4,24.7,15.2,0000.0,0008.24,0006.20,0006.00
2022-11-04 12:31:00,,0822.3,4.98,0.00,22.7,21.7,00.0,31.4,24.7,15.2,0000.0,0008.14,0006.17,0005.97
2022-11-04 12:32:00,,0822.3,5.02,0.00,22.7,21.6,00.0,31.4,24.6,15.2,0000.0,0008.13,0006.17,0005.96
2022-11-04 12:33:00,,0822.3,5.00,0.00,22.7,21.6,00.0,31.4,24.6,15.2,0000.0,0008.21,0006.18,0005.95
2022-11-04 12:34:00,,0822.3,5.00,0.00,22.7,21.5,00.0,31.5,24.6,15.2,0000.0,0008.27,0006.19,0005.95
2022-11-04 12:35:00,,0822.3,4.98,0.00,22.7,21.5,00.0,31.5,24.6,15.2,0000.0,0008.34,0006.23,0005.95
2022-11-04 12:36:00,,0822.3,5.01,0.00,22.7,21.5,00.0,31.5,24.6,15.2,0000.0,0008.35,0006.24,0005.96
2022-11-04 12:37:00,,0822.3,5.01,0.00,22.7,21.5,00.0,31.5,24.6,15.2,0000.0,0008.35,0006.25,0005.98
2022-11-04 12:38:00,,0822.4,5.00,0.00,22.7,21.4,00.0,31.5,24.6,15.2,0000.0,0008.31,0006.25,0006.00
2022-11-04 12:39:00,,0822.4,4.98,0.00,22.7,21.4,00.0,31.5,24.6,15.2,0000.0,0008.32,0006.26,0006.01
2022-11-04 12:40:00,,0822.3,5.01,0.00,22.7,21.4,00.0,31.5,24.6,15.2,0000.0,0008.27,0006.26,0006.02
2022-11-04 12:41:00,,0822.4,5.00,0.00,22.7,21.4,00.0,31.5,24.6,15.2,0000.0,0008.25,0006.27,0006.02
2022-11-04 12:42:00,,0822.4,5.01,0.00,22.7,21.4,00.0,31.4,24.6,15.2,0000.0,0008.24,0006.27,0006.03
2022-11-04 12:43:00,,0822.3,5.01,0.00,22.7,21.3,00.0,31.4,24.6,15.2,0000.0,0008.26,0006.28,0006.03
2022-11-04 12:44:00,,0822.3,4.99,0.00,22.7,21.3,00.0,31.4,24.6,15.2,0000.0,0008.24,0006.28,0006.04
2022-11-04 12:45:00,,0822.4,5.01,0.00,22.7,21.3,00.0,31.4,24.6,15.2,0000.0,0008.16,0006.29,0006.07
2022-11-04 12:46:00,,0822.4,5.01,0.00,22.7,21.3,00.0,31.4,24.6,15.1,0000.0,0008.10,0006.32,0006.13
2022-11-04 12:47:00,,0822.4,4.98,0.00,22.7,21.3,00.0,31.4,24.6,15.1,0000.0,0008.10,0006.35,0006.17
2022-11-04 12:48:00,,0822.3,5.01,0.00,22.7,21.3,00.0,31.4,24.6,15.1,0000.0,0008.19,0006.39,0006.20
2022-11-04 12:49:00,,0822.4,5.01,0.00,22.7,21.3,00.0,31.4,24.6,15.1,0000.0,0008.28,0006.47,0006.26
2022-11-04 12:50:00,,0822.4,5.00,0.00,22.7,21.3,00.0,31.4,24.6,15.1,0000.0,0008.32,0006.54,0006.32
2022-11-04 12:51:00,,0822.4,5.00,0.00,22.7,21.2,00.0,31.4,24.6,15.0,0000.0,0008.33,0006.59,0006.38
2022-11-04 12:52:00,,0822.3,4.98,0.00,22.6,21.1,00.0,31.4,24.5,15.0,0000.0,0008.30,0006.62,0006.44
2022-11-04 12:53:00,,0822.4,5.01,0.00,22.6,21.1,00.0,31.4,24.5,15.0,0000.0,0008.29,0006.64,0006.47
2022-11-04 12:54:00,,0822.4,5.01,0.00,22.6,21.1,00.0,31.4,24.5,15.0,0000.0,0008.32,0006.69,0006.52
2022-11-04 12:55:00,,0822.5,5.00,0.00,22.6,21.1,00.0,31.4,24.5,15.0,0000.0,0008.40,0006.77,0006.58
2022-11-04 12:56:00,,0822.4,5.00,0.00,22.6,21.1,00.0,31.4,24.5,15.0,0000.0,0008.44,0006.81,0006.61
2022-11-04 12:57:00,,0822.4,5.01,0.00,22.6,21.1,00.0,31.4,24.5,15.1,0000.0,0008.96,0006.83,0006.63
2022-11-04 12:58:00,,0822.4,4.98,0.00,22.6,21.1,00.0,31.3,24.4,15.1,0000.0,0009.10,0006.85,0006.64
2022-11-04 12:59:00,,0822.4,5.01,0.00,22.6,21.1,00.0,31.3,24.4,15.1,0000.0,0009.05,0006.86,0006.67
